sat.trackr.live / text

‹ back to catalog

STARLINK-32612

NORAD 61972 · 2024-210P

PAYLOAD ACTIVE UNKNOWN

§ Identity

Operator
Country
US
Launch date
2024-11-14
Launch site
AFETR
Launch vehicle
Mass (kg)
RCS (m²)

Purposes: comms

External: N2YO · Heavens-Above · Gunter

§ Orbital elements

Epoch: 2026-05-25T04:06:50.490144Z

Period
94.27 min
Inclination
43.0001°
Eccentricity
0.0001206
Mean motion
15.27591487 rev/d
Perigee alt
482.2 km
Apogee alt
483.8 km
Semi-major
6,861.2 km
B*
6.0932e-4
RAAN
108.1682°
Arg perigee
273.3565°
Mean anomaly
86.7149°
Rev number
8,657

§ Raw data

STARLINK-326121 61972U 24210P   26145.17141771  .00016549  00000+0  60932-3 0  99982 61972  43.0001 108.1682 0001206 273.3565  86.7149 15.27591487 86571

JSON: /api/v1/satellites/61972 · /tle

For live sub-satellite position, see the globe view (requires WebGL).

§ Visibility from observer

Set your observer location to see the next 7 days of passes ≥ 10°. The values pass through the URL so the page stays shareable.

No JS? Fill the form by hand. The geolocation button needs JavaScript.